Content
SEND FEEDBACK

Daily
Averages
Monthly
Summary
Turkmenistan

ASHGABAT, TURKMENISTAN


Home > Asia > Turkmenistan
Elevation: 775 feet     Latitude: 37 58N     Longitude: 058 20E

WEATHER
 
SELECT A DAY
Number of Records: 177,426;   Date Range: 3/15/97 - 8/30/14
 
SHARE

PRINT THIS DATA

[ ← Previous Day ]
WEATHER ALMANAC - JANUARY 3, 2014
[ Next Day → ]
[ °C ]   °F
Weather ElementAverageHighLow
Temperature37.9 °F41 °F (2:00 pm)33.8 °F (3:00 am)
Dewpoint32.9 °F37 °F (11:00 am)28 °F (2:00 am)
Humidity80.7 %93 % (3:00 am)62 % (2:00 am)
Barometer30.37 in30.44 in (11:00 am)30.30 in (1:00 am)
Wind Speed5 mph11.2 mph (3:00 am)
Weather ElementAverage
Visibility5.3 mi
Wind DirectionSSE (143.9 °)

Weather ElementTotal
Precipitation---
Heating Degree Days27.6 (Base 65)
Averaged from 31 records on January 3, 2014
WEATHER CONDITIONS BREAKOUT
WIND DIRECTION BREAKOUT
WEATHER BY HOUR - JANUARY 3, 2014
[ °C ]   °F
Local TimeTemperatureDewpointHumidityBarometerVisibilityWind DirectionWind SpeedGust SpeedPrecipitationEventsConditions
1:00 AM37.4 °F28.4 °F70 %30.30 in6.2 miNNW (340°)2.2 mphMostly Cloudy
2:00 AM36.0 °F28.0 °F62 %30.34 in6.0 miWNW (300°)8.9 mphScattered Clouds
2:00 AM35.6 °F28.4 °F75 %30.30 in6.2 miWNW (290°)6.7 mphMostly Cloudy
3:00 AM33.8 °F32.0 °F93 %30.30 in5.0 miWNW (290°)11.2 mphMostly Cloudy
4:00 AM35.6 °F32.0 °F87 %30.33 in5.0 miNW (310°)11.2 mphOvercast
5:00 AM35.0 °F32.0 °F85 %30.37 in2.0 miNW (310°)6.7 mphOvercast
5:00 AM33.8 °F32.0 °F93 %30.33 in4.3 miNW (310°)6.7 mphOvercast
6:00 AM33.8 °F32.0 °F93 %30.33 in3.1 miWSW (240°)4.5 mphOvercast
7:00 AM35.6 °F33.8 °F93 %30.33 in3.1 miWSW (240°)4.5 mphOvercast
8:00 AM35.0 °F32.0 °F84 %30.40 in2.0 miWSW (250°)2.2 mphMist
8:00 AM35.6 °F33.8 °F93 %30.36 in3.7 miWSW (250°)2.2 mphOvercast
9:00 AM37.4 °F33.8 °F87 %30.39 in3.7 miVariable2.2 mphRainLight Rain Showers
10:00 AM39.2 °F35.6 °F87 %30.39 in3.7 miCalmRainLight Rain
11:00 AM39.0 °F37.0 °F88 %30.44 in6.0 miNE (50°)4.5 mphRainLight Rain
11:00 AM39.2 °F33.8 °F81 %30.39 in6.2 miNE (50°)4.5 mphRainLight Rain
12:00 PM39.2 °F33.8 °F81 %30.39 in6.2 miNE (50°)4.5 mphOvercast
1:00 PM39.2 °F33.8 °F81 %30.36 in6.2 miVariable2.2 mphOvercast
2:00 PM40.0 °F34.0 °F70 %30.41 in6.0 miENE (70°)4.5 mphRainLight Rain
2:00 PM41.0 °F33.8 °F76 %30.36 in6.2 miVariable2.2 mphRainLight Rain
3:00 PM41.0 °F33.8 °F76 %30.36 in6.2 miNE (40°)4.5 mphRainLight Rain
4:00 PM41.0 °F33.8 °F76 %30.36 in6.2 miENE (70°)4.5 mphOvercast
5:00 PM41.0 °F33.0 °F64 %30.40 in6.0 miESE (120°)6.7 mphPartly Cloudy
5:00 PM41.0 °F32.0 °F70 %30.36 in6.2 miESE (110°)6.7 mphOvercast
6:00 PM41.0 °F33.8 °F76 %30.36 in6.2 miEast (90°)4.5 mphRainLight Rain
7:00 PM39.2 °F32.0 °F75 %30.39 in6.2 miEast (80°)6.7 mphRainLight Rain
8:00 PM39.0 °F34.0 °F74 %30.41 in6.0 miEast (100°)4.5 mphRainLight Rain
8:00 PM39.2 °F33.8 °F81 %30.39 in6.2 miEast (100°)4.5 mphRainLight Rain
9:00 PM39.2 °F33.8 °F81 %30.39 in6.2 miSE (130°)6.7 mphRainLight Rain Showers
10:00 PM37.4 °F32.0 °F81 %30.39 in6.2 miSE (130°)4.5 mphMostly Cloudy
11:00 PM37.0 °F33.0 °F81 %30.43 in6.0 miENE (70°)4.5 mphPartly Cloudy
11:00 PM37.4 °F33.8 °F87 %30.39 in6.2 miENE (70°)4.5 mphMostly Cloudy
Hourly data recorded from UTAA, located miles away from Ashgabat, Turkmenistan







STORIES FROM OUR PARTNERS